TimeMST,TemperatureF,Dew PointF,Humidity,Sea Level PressureIn,VisibilityMPH,Wind Direction,Wind SpeedMPH,Gust SpeedMPH,PrecipitationIn,Events,Conditions,WindDirDegrees,DateUTC
12:53 AM,21.9,14.0,72,30.61,10.0,ESE,3.5,-,N/A,,Overcast,110,2013-01-02 07:53:00
2:53 AM,21.9,14.0,72,30.62,10.0,Calm,Calm,-,N/A,,Overcast,0,2013-01-02 09:53:00
3:53 AM,19.9,14.0,78,30.61,10.0,ESE,3.5,-,N/A,,Unknown,120,2013-01-02 10:53:00
4:20 AM,21.2,14.0,74,30.47,10.0,ESE,3.5,-,N/A,,Overcast,110,2013-01-02 11:20:00
4:53 AM,21.0,14.0,74,30.61,10.0,Calm,Calm,-,N/A,,Overcast,0,2013-01-02 11:53:00
5:53 AM,21.0,14.0,74,30.61,10.0,SSE,4.6,-,N/A,,Overcast,150,2013-01-02 12:53:00
6:53 AM,21.0,14.0,74,30.62,10.0,SE,5.8,-,N/A,,Overcast,130,2013-01-02 13:53:00
7:46 AM,21.2,12.2,68,30.49,10.0,ESE,3.5,-,N/A,,Overcast,120,2013-01-02 14:46:00
7:53 AM,21.0,12.9,71,30.62,10.0,SE,3.5,-,N/A,,Overcast,130,2013-01-02 14:53:00
8:53 AM,19.9,12.9,74,30.64,10.0,ESE,6.9,-,N/A,,Overcast,120,2013-01-02 15:53:00
9:53 AM,21.0,12.9,71,30.65,10.0,SE,4.6,-,N/A,,Overcast,140,2013-01-02 16:53:00
10:53 AM,21.0,14.0,74,30.66,10.0,South,6.9,-,N/A,,Overcast,170,2013-01-02 17:53:00
11:53 AM,21.9,12.9,68,30.64,10.0,SSE,5.8,-,N/A,,Scattered Clouds,150,2013-01-02 18:53:00
12:53 PM,23.0,12.9,65,30.62,10.0,SSE,6.9,-,N/A,,Clear,160,2013-01-02 19:53:00
1:53 PM,24.1,12.0,60,30.61,10.0,Calm,Calm,-,N/A,,Clear,0,2013-01-02 20:53:00
2:53 PM,26.1,12.0,55,30.60,10.0,Calm,Calm,-,N/A,,Clear,0,2013-01-02 21:53:00
3:53 PM,25.0,12.0,58,30.60,10.0,Calm,Calm,-,N/A,,Clear,0,2013-01-02 22:53:00
4:53 PM,19.9,12.0,71,30.62,10.0,WNW,3.5,-,N/A,,Clear,290,2013-01-02 23:53:00
5:53 PM,17.1,10.0,74,30.63,10.0,NNW,4.6,-,N/A,,Clear,330,2013-01-03 00:53:00
7:53 PM,14.0,8.1,77,30.63,10.0,NW,3.5,-,N/A,,Clear,310,2013-01-03 02:53:00
8:53 PM,12.9,8.1,81,30.63,10.0,Calm,Calm,-,N/A,,Clear,0,2013-01-03 03:53:00
9:53 PM,12.0,7.0,80,30.63,10.0,Calm,Calm,-,N/A,,Clear,0,2013-01-03 04:53:00
10:53 PM,12.0,7.0,80,30.63,10.0,Calm,Calm,-,N/A,,Clear,0,2013-01-03 05:53:00
11:53 PM,10.9,6.1,81,30.63,10.0,Calm,Calm,-,N/A,,Clear,0,2013-01-03 06:53:00